Date String (YYYY-MM-DD hh:mm:ss) UTC,Instrument flags,Ambient pressure (hPa),Sample flow (lpm),Bypass flow (lpm),Sample temperature (°C),Ambient temperature (°C),ASC tube jacket temperature (°C),LED temperature (°C),Box temperature (°C),Sample RH (%),Span deviation,Mass concentration (μg/m³),Mass concentration (μg/m³),Mass concentration (μg/m³)
DateTimeUTC,F1_M11,P_M11,Q1_M11,Q2_M11,T1_M11,T2_M11,T3_M11,T4_M11,T5_M11,U1_M11,ZSPAN_M11,X0_M11,X2_M11,X1_M11
2022-05-21 04:00:00,,0827.4,5.00,0.00,22.7,21.9,00.0,31.6,24.6,20.2,0000.0,0002.10,0002.09,0002.02
2022-05-21 04:01:00,,0827.4,5.00,0.00,22.7,21.9,00.0,31.6,24.7,20.2,0000.0,0002.06,0002.09,0002.04
2022-05-21 04:02:00,,0827.5,4.99,0.00,22.7,21.9,00.0,31.6,24.7,20.2,0000.0,0002.09,0002.13,0002.08
2022-05-21 04:03:00,,0827.5,5.00,0.00,22.7,21.9,00.0,31.6,24.7,20.2,0000.0,0002.11,0002.19,0002.15
2022-05-21 04:04:00,,0827.5,5.00,0.00,22.7,21.9,00.0,31.6,24.7,20.1,0000.0,0002.17,0002.26,0002.22
2022-05-21 04:05:00,,0827.5,5.01,0.00,22.8,21.9,00.0,31.6,24.7,20.1,0000.0,0002.26,0002.34,0002.30
2022-05-21 04:06:00,,0827.6,4.99,0.00,22.8,21.9,00.0,31.6,24.7,20.1,0000.0,0002.28,0002.40,0002.36
2022-05-21 04:07:00,,0827.5,5.00,0.00,22.8,21.9,00.0,31.6,24.7,20.1,0000.0,0002.38,0002.48,0002.43
2022-05-21 04:08:00,,0827.5,5.00,0.00,22.8,21.9,00.0,31.7,24.7,20.1,0000.0,0002.43,0002.54,0002.50
2022-05-21 04:09:00,,0827.5,4.99,0.00,22.8,21.8,00.0,31.7,24.7,20.1,0000.0,0002.56,0002.67,0002.62
2022-05-21 04:10:00,,0827.6,5.00,0.00,22.8,21.8,00.0,31.7,24.7,20.1,0000.0,0002.85,0002.95,0002.88
2022-05-21 04:11:00,,0827.6,5.00,0.00,22.8,21.8,00.0,31.7,24.7,20.2,0000.0,0003.02,0003.12,0003.06
2022-05-21 04:12:00,,0827.7,5.00,0.00,22.7,21.8,00.0,31.7,24.6,20.2,0000.0,0003.17,0003.21,0003.17
2022-05-21 04:13:00,,0827.6,5.00,0.00,22.7,21.8,00.0,31.7,24.6,20.2,0000.0,0003.32,0003.31,0003.27
2022-05-21 04:14:00,,0827.6,4.99,0.00,22.7,21.8,00.0,31.7,24.6,20.2,0000.0,0003.50,0003.41,0003.35
2022-05-21 04:15:00,,0827.6,5.01,0.00,22.7,21.8,00.0,31.7,24.6,20.6,0000.0,0003.60,0003.49,0003.44
2022-05-21 04:16:00,,0827.5,4.99,0.00,22.7,21.7,00.0,31.7,24.6,22.8,0000.0,0003.75,0003.58,0003.53
2022-05-21 04:17:00,,0827.5,5.00,0.00,22.7,21.7,00.0,31.7,24.6,23.0,0000.0,0003.86,0003.64,0003.59
2022-05-21 04:18:00,,0827.6,5.01,0.00,22.7,21.7,00.0,31.7,24.6,21.2,0000.0,0003.86,0003.66,0003.62
2022-05-21 04:19:00,,0827.4,5.00,0.00,22.7,21.8,00.0,31.7,24.6,20.7,0000.0,0003.91,0003.69,0003.64
2022-05-21 04:20:00,,0827.4,5.01,0.00,22.7,21.8,00.0,31.7,24.6,20.6,0000.0,0003.92,0003.70,0003.66
2022-05-21 04:21:00,,0827.5,5.00,0.00,22.7,21.8,00.0,31.7,24.7,20.5,0000.0,0003.80,0003.65,0003.62
2022-05-21 04:22:00,,0827.5,5.00,0.00,22.7,21.8,00.0,31.7,24.7,20.4,0000.0,0003.73,0003.62,0003.59
2022-05-21 04:23:00,,0827.5,5.01,0.00,22.7,21.8,00.0,31.7,24.7,20.4,0000.0,0003.71,0003.61,0003.58
2022-05-21 04:24:00,,0827.6,5.00,0.00,22.7,21.8,00.0,31.7,24.6,20.4,0000.0,0003.74,0003.63,0003.60
2022-05-21 04:25:00,,0827.7,5.00,0.00,22.8,21.8,00.0,31.7,24.7,20.3,0000.0,0003.74,0003.64,0003.62
2022-05-21 04:26:00,,0827.8,5.01,0.00,22.7,21.8,00.0,31.7,24.7,20.3,0000.0,0003.80,0003.67,0003.65
2022-05-21 04:27:00,,0828.0,5.00,0.00,22.8,21.8,00.0,31.7,24.7,20.3,0000.0,0003.78,0003.66,0003.65
2022-05-21 04:28:00,,0827.9,4.99,0.00,22.8,21.8,00.0,31.7,24.7,20.3,0000.0,0003.72,0003.63,0003.61
2022-05-21 04:29:00,,0828.0,5.00,0.00,22.7,21.7,00.0,31.7,24.6,20.3,0000.0,0003.69,0003.61,0003.60
2022-05-21 04:30:00,,0827.9,5.00,0.00,22.7,21.7,00.0,31.7,24.6,20.4,0000.0,0003.67,0003.60,0003.59
2022-05-21 04:31:00,,0827.9,5.00,0.00,22.7,21.7,00.0,31.7,24.5,20.4,0000.0,0003.65,0003.59,0003.58
2022-05-21 04:32:00,,0827.9,5.00,0.00,22.7,21.6,00.0,31.7,24.5,20.4,0000.0,0003.58,0003.54,0003.53
2022-05-21 04:33:00,,0827.9,5.00,0.00,22.7,21.6,00.0,31.6,24.5,20.4,0000.0,0003.58,0003.53,0003.52
2022-05-21 04:34:00,,0827.9,4.99,0.00,22.6,21.6,00.0,31.6,24.5,20.4,0000.0,0003.64,0003.53,0003.51
2022-05-21 04:35:00,,0828.0,5.00,0.00,22.6,21.6,00.0,31.6,24.5,20.4,0000.0,0003.55,0003.46,0003.43
2022-05-21 04:36:00,,0827.9,4.99,0.00,22.6,21.6,00.0,31.6,24.5,20.4,0000.0,0003.42,0003.38,0003.35
2022-05-21 04:37:00,,0828.0,5.00,0.00,22.6,21.5,00.0,31.6,24.5,20.5,0000.0,0003.29,0003.30,0003.27
2022-05-21 04:38:00,,0828.0,5.00,0.00,22.6,21.5,00.0,31.6,24.5,20.5,0000.0,0003.35,0003.27,0003.23
2022-05-21 04:39:00,,0828.0,5.00,0.00,22.6,21.5,00.0,31.6,24.5,20.5,0000.0,0003.38,0003.28,0003.23
2022-05-21 04:40:00,,0828.0,5.00,0.00,22.6,21.5,00.0,31.6,24.4,20.5,0000.0,0003.45,0003.31,0003.25
2022-05-21 04:41:00,,0827.9,4.99,0.00,22.6,21.5,00.0,31.6,24.5,20.5,0000.0,0003.54,0003.36,0003.29
2022-05-21 04:42:00,,0827.9,5.00,0.00,22.6,21.5,00.0,31.6,24.4,20.5,0000.0,0003.61,0003.39,0003.31
2022-05-21 04:43:00,,0827.8,5.00,0.00,22.6,21.5,00.0,31.6,24.4,20.5,0000.0,0003.62,0003.40,0003.32
2022-05-21 04:44:00,,0827.8,5.01,0.00,22.6,21.5,00.0,31.6,24.4,20.5,0000.0,0003.63,0003.41,0003.33
2022-05-21 04:45:00,,0827.7,5.00,0.00,22.6,21.5,00.0,31.6,24.4,20.5,0000.0,0003.61,0003.40,0003.33
2022-05-21 04:46:00,,0827.7,5.00,0.00,22.6,21.5,00.0,31.6,24.4,20.5,0000.0,0003.58,0003.42,0003.36
2022-05-21 04:47:00,,0827.7,5.00,0.00,22.6,21.5,00.0,31.5,24.4,20.5,0000.0,0003.60,0003.43,0003.37
2022-05-21 04:48:00,,0827.7,5.00,0.00,22.6,21.5,00.0,31.5,24.4,20.5,0000.0,0003.59,0003.43,0003.37
2022-05-21 04:49:00,,0827.8,4.99,0.00,22.6,21.5,00.0,31.5,24.5,20.5,0000.0,0003.50,0003.41,0003.36
2022-05-21 04:50:00,,0827.8,5.00,0.00,22.6,21.5,00.0,31.5,24.4,20.5,0000.0,0003.43,0003.38,0003.34
2022-05-21 04:51:00,,0827.9,5.00,0.00,22.6,21.5,00.0,31.5,24.4,20.5,0000.0,0003.42,0003.36,0003.32
2022-05-21 04:52:00,,0827.9,5.01,0.00,22.6,21.5,00.0,31.5,24.4,20.5,0000.0,0003.37,0003.32,0003.28
2022-05-21 04:53:00,,0827.8,5.00,0.00,22.6,21.5,00.0,31.5,24.4,20.5,0000.0,0003.36,0003.29,0003.24
2022-05-21 04:54:00,,0828.0,4.99,0.00,22.6,21.5,00.0,31.5,24.4,20.5,0000.0,0003.36,0003.29,0003.24
2022-05-21 04:55:00,,0827.9,5.00,0.00,22.6,21.5,00.0,31.5,24.4,20.4,0000.0,0003.31,0003.26,0003.21
2022-05-21 04:56:00,,0827.9,5.00,0.00,22.6,21.5,00.0,31.5,24.4,20.4,0000.0,0003.23,0003.21,0003.17
2022-05-21 04:57:00,,0827.9,5.00,0.00,22.5,21.5,00.0,31.5,24.4,20.4,0000.0,0003.16,0003.16,0003.12
2022-05-21 04:58:00,,0827.9,5.02,0.00,22.6,21.5,00.0,31.5,24.4,20.4,0000.0,0003.09,0003.11,0003.03
2022-05-21 04:59:00,,0827.9,4.99,0.00,22.6,21.5,00.0,31.5,24.4,20.4,0000.0,0003.06,0003.05,0002.95
